Ketchikan, AK

9:19 AM AKST on November 13, 2018 (GMT -0900)
Ketchikan International

Weather History for PAKT - November, 2017

Change the Weather History Date:

Monday, November 27, 2017

  Actual Average Record
Temperature  
Mean Temperature 39 °F -  
Max Temperature 43 °F 43 °F 61 °F (1959)
Min Temperature 35 °F 33 °F 8 °F (2006)
Degree Days  
Heating Degree Days 26    
Moisture  
Dew Point 36 °F    
Average Humidity 90    
Maximum Humidity 100    
Minimum Humidity 76    
Precipitation  
Precipitation 0.26 in - - ()
Sea Level Pressure  
Sea Level Pressure 29.50 in    
Wind  
Wind Speed 8 mph (SSE)    
Max Wind Speed 21 mph    
Max Gust Speed 31 mph    
Visibility 9 miles    
Events Rain    
Averages and records for this station are not official NWS values.
T = Trace of Precipitation, MM = Missing Value Source: NWS Daily Summary

Daily Weather History Graph

Daily Weather History Graph

Search for Another Location

Airport or City:

Astronomy

Nov. 27, 2017 Rise Set
Actual Time 7:44 AM AKST 3:24 PM AKST
Civil Twilight 7:00 AM AKST 4:08 PM AKST
Nautical Twilight 6:13 AM AKST 4:55 PM AKST
Astronomical Twilight 5:29 AM AKST 5:39 PM AKST
Moon 1:25 PM AKST (11/27) No Moon Set
Length of Visible Light 9h 08m
Length of Day
7h 40m
Waxing Gibbous, 62% of the Moon is Illuminated
Nov 27
Waxing Gibbous
Dec 3
Full
Dec 9
Last Quarter
Dec 17
New
Dec 26
First Quarter

Hourly Weather History & Observations

Time (AKST) Temp. Windchill Dew Point Humidity Pressure Visibility Wind Dir Wind Speed Gust Speed Precip Events Conditions
12:02 AM 36.0 °F 31.1 °F 33.1 °F 89% 29.50 in 10.0 mi South 5.8 mph - N/A   Overcast
12:53 AM 36.0 °F 31.1 °F 34.0 °F 93% 29.52 in 10.0 mi South 5.8 mph - N/A   Mostly Cloudy
1:06 AM 36.0 °F 32.1 °F 33.1 °F 89% 29.52 in 10.0 mi SSE 4.6 mph - N/A   Overcast
1:29 AM 35.6 °F 31.7 °F 33.8 °F 93% 29.52 in 10.0 mi South 4.6 mph - N/A   Overcast
1:53 AM 36.0 °F 32.1 °F 34.0 °F 93% 29.53 in 10.0 mi SSE 4.6 mph - N/A   Mostly Cloudy
2:11 AM 35.1 °F 30.1 °F 34.0 °F 96% 29.53 in 10.0 mi SSE 5.8 mph - N/A   Mostly Cloudy
2:53 AM 36.0 °F 31.1 °F 35.1 °F 97% 29.54 in 10.0 mi SSE 5.8 mph - N/A   Overcast
3:36 AM 36.0 °F 29.6 °F 35.1 °F 97% 29.52 in 10.0 mi SE 8.1 mph - 0.01 in Rain Light Rain
3:51 AM 35.6 °F 29.9 °F 35.6 °F 100% 29.52 in 10.0 mi South 6.9 mph - 0.01 in   Mostly Cloudy
3:53 AM 36.0 °F 29.6 °F 35.1 °F 97% 29.53 in 10.0 mi South 8.1 mph - 0.01 in   Mostly Cloudy
4:05 AM 37.0 °F 32.4 °F 35.1 °F 93% 29.52 in 10.0 mi South 5.8 mph - N/A   Overcast
4:53 AM 37.9 °F 31.5 °F 35.1 °F 89% 29.51 in 10.0 mi South 9.2 mph 18.4 mph 0.01 in   Overcast
5:53 AM 39.9 °F 31.8 °F 36.0 °F 86% 29.51 in 7.0 mi SE 15.0 mph - 0.03 in Rain Light Rain
6:08 AM 39.2 °F 29.8 °F 35.6 °F 87% 29.51 in 7.0 mi SE 18.4 mph 25.3 mph N/A Rain Light Rain
6:53 AM 39.2 °F 29.8 °F 35.6 °F 87% 29.51 in 5.0 mi SSE 18.4 mph 27.6 mph N/A Rain Rain
7:53 AM 37.4 °F 27.2 °F 35.6 °F 93% 29.50 in 5.0 mi SE 19.6 mph 31.1 mph N/A Rain Heavy Rain
8:53 AM 39.2 °F 29.3 °F 37.4 °F 93% 29.53 in 8.0 mi SE 20.7 mph 26.5 mph N/A Rain Light Rain
9:53 AM 39.9 °F 32.5 °F 37.9 °F 93% 29.55 in 7.0 mi SE 12.7 mph 25.3 mph 0.04 in Rain Light Rain
11:53 AM 41.0 °F 34.3 °F 39.2 °F 93% 29.60 in 10.0 mi SE 11.5 mph - N/A   Overcast
12:53 PM 43.0 °F 36.8 °F 39.9 °F 89% 29.61 in 10.0 mi SE 11.5 mph - N/A   Mostly Cloudy
1:53 PM 42.8 °F 39.3 °F 41.0 °F 93% 29.60 in 10.0 mi SE 5.8 mph - N/A   Mostly Cloudy
2:53 PM 42.8 °F 38.6 °F 39.2 °F 87% 29.60 in 5.0 mi SE 6.9 mph - N/A Rain Light Rain
3:53 PM 42.8 °F 37.5 °F 39.2 °F 87% 29.58 in 10.0 mi SSE 9.2 mph - N/A   Overcast
4:53 PM 42.1 °F 34.9 °F 39.0 °F 89% 29.55 in 10.0 mi SSE 13.8 mph - N/A   Overcast
5:53 PM 39.9 °F 36.7 °F 37.0 °F 89% 29.51 in 10.0 mi Variable 4.6 mph - N/A   Clear
6:53 PM 39.0 °F - 37.0 °F 93% 29.46 in 10.0 mi Calm Calm - N/A   Overcast
7:53 PM 41.0 °F 37.1 °F 37.0 °F 86% 29.44 in 6.0 mi South 5.8 mph - 0.05 in Rain Light Rain
8:53 PM 41.0 °F 35.8 °F 37.9 °F 89% 29.39 in 10.0 mi South 8.1 mph - 0.03 in Rain Light Rain
9:53 PM 41.0 °F 36.4 °F 37.0 °F 86% 29.34 in 10.0 mi South 6.9 mph - 0.02 in Rain Light Rain
10:53 PM 43.0 °F 36.0 °F 36.0 °F 76% 29.28 in 9.0 mi SE 13.8 mph 19.6 mph 0.02 in Rain Light Rain
11:53 PM 43.0 °F 35.7 °F 36.0 °F 76% 29.20 in 7.0 mi ESE 15.0 mph 26.5 mph 0.05 in Rain Light Rain